Dewpoint
55 54 54 54 53 53 53 52 52 52 52 52 52 52 52 52 52 51 51 50 50 50 50 51 51 51 50 50 49 48 48 47 47 47 47 48 49 49 49 50 51 51 52 52 51 50 49 43 32 25 27 28 28 29 31 39 41 39 36 37 38 41 46 52 54 54 54 54 54 54 54 54 54 54 54 54 54 54 54 54 54 54 54 54 54 54 54 54 54 54 54 54 54 54 54 54 54 54 54 54 54 55 55
55 54 54 54 53 53 53 52 52 52 52 52 52 52 52 52 52 51 51 50 50 50 50 50 50 50 50 50 49 48 48 47 46 46 46 47 48 48 49 50 50 51 51 51 51 50 48 40 30 23 27 28 29 29 31 37 38 37 35 36 38 41 48 52 54 54 54 54 54 54 54 54 54 53 53 53 53 53 54 54 54 54 54 54 54 54 54 54 54 54 54 54 54 54 54 54 54 54 54 54 54 55 55
54 54 54 54 53 53 53 52 52 52 51 51 51 51 51 51 51 51 51 50 50 50 49 49 50 50 50 50 49 48 48 47 46 45 45 45 46 47 48 49 49 50 50 50 49 49 48 45 34 24 27 28 29 30 31 36 38 36 34 36 38 41 47 52 54 54 54 54 54 54 54 54 53 53 53 53 53 53 53 53 53 53 53 53 53 53 53 53 54 54 54 54 54 54 54 54 54 54 54 54 54 54 55
54 54 54 53 53 53 53 52 52 51 51 51 51 51 51 51 51 51 51 50 50 49 49 49 49 49 50 49 49 48 48 47 46 45 45 45 45 45 46 47 47 48 49 48 47 46 44 45 37 29 25 28 30 31 33 38 39 37 32 35 36 40 51 53 53 54 54 54 54 54 53 53 53 53 53 53 53 53 53 53 53 53 53 53 53 53 53 53 53 53 53 53 53 53 54 54 54 54 54 54 54 54 55
54 54 53 53 53 53 53 52 52 51 51 51 51 51 51 51 50 50 50 50 49 49 49 49 49 49 49 49 49 48 48 47 46 45 45 44 44 44 44 45 45 46 47 47 46 43 35 38 34 28 25 27 30 32 33 38 39 36 32 33 36 42 52 52 53 53 53 53 53 53 53 53 53 53 53 53 52 52 52 52 52 52 52 52 52 52 53 53 53 53 53 53 53 53 53 53 53 53 53 53 54 54 55
54 54 53 53 53 53 53 52 52 51 51 50 50 50 51 50 50 49 49 49 49 49 49 49 48 48 49 49 49 48 47 47 46 45 44 43 43 42 42 43 44 45 45 45 45 41 33 28 24 23 25 27 30 32 34 36 35 31 30 31 39 47 52 52 52 53 53 53 53 53 53 52 52 52 52 52 52 52 52 52 52 52 52 52 52 52 52 52 52 52 52 52 52 52 53 53 53 53 53 53 53 54 54
54 53 53 53 53 53 53 53 52 52 51 50 50 50 50 50 49 49 49 49 49 49 49 48 48 48 48 48 48 48 48 47 46 45 44 43 42 41 40 40 41 42 44 44 44 41 34 23 21 23 24 27 29 31 35 35 33 31 30 32 42 51 51 51 52 52 52 52 52 52 52 52 52 52 52 52 52 52 52 52 52 52 52 52 51 52 52 52 52 52 52 52 52 52 52 52 52 52 53 52 53 53 54
54 53 53 53 53 53 53 53 52 52 51 51 50 50 50 49 49 49 49 49 49 49 49 48 48 47 47 47 47 47 47 47 46 45 44 43 41 40 39 39 39 40 41 42 42 41 38 28 24 22 24 26 30 34 36 31 30 29 30 33 42 49 50 51 51 51 52 52 52 52 52 52 51 51 51 51 51 51 51 51 51 51 51 51 51 51 51 51 51 51 51 51 51 52 52 52 52 52 52 52 52 53 54
54 53 53 53 53 53 53 53 52 52 51 51 50 50 49 49 49 49 49 49 49 49 49 48 48 47 47 46 46 47 47 47 46 45 45 43 42 40 39 37 37 37 38 40 40 40 39 31 25 22 23 25 30 35 38 31 28 28 28 35 43 49 50 50 50 51 51 51 51 51 51 51 51 51 51 51 51 51 51 51 51 51 51 51 51 51 51 51 51 51 51 51 51 51 51 51 51 51 51 52 52 52 53
53 53 53 53 53 53 53 53 52 52 52 51 50 50 49 49 49 49 49 49 49 49 48 48 47 47 46 46 46 46 46 46 46 45 45 44 43 41 40 38 37 36 36 36 38 39 39 29 23 21 22 24 29 35 37 31 30 31 27 40 47 49 50 50 50 51 51 51 51 51 51 51 50 50 50 50 50 50 50 50 50 50 50 50 50 50 51 51 50 51 51 51 51 51 51 51 51 51 51 51 51 51 52
53 53 53 53 53 53 52 52 52 52 52 51 51 50 49 49 49 49 49 49 49 48 48 48 47 47 46 46 45 45 45 45 45 45 45 44 43 42 41 39 37 36 35 35 36 37 38 27 21 20 21 23 28 32 30 30 31 31 27 40 47 49 50 50 50 51 51 51 51 51 51 50 50 50 50 50 50 50 50 50 50 50 50 50 50 50 50 50 50 50 50 50 50 51 50 50 50 50 50 50 51 51 51
53 53 53 53 52 52 52 52 52 52 52 51 51 50 50 49 49 49 49 48 48 48 47 47 47 46 46 45 45 45 45 45 45 45 44 44 43 43 41 40 39 37 35 35 35 36 36 25 20 19 19 22 23 25 27 31 30 27 26 40 47 49 50 50 50 51 50 50 50 50 50 50 50 50 50 50 50 50 50 49 49 49 49 49 49 50 50 50 50 50 50 50 50 50 50 50 50 50 50 50 50 50 50
53 53 53 52 52 52 52 52 52 52 52 51 51 50 50 49 49 49 49 48 48 47 47 46 46 46 45 45 45 45 45 44 44 44 44 43 43 42 42 40 40 38 37 36 36 34 31 21 19 19 19 22 20 21 29 33 31 28 32 44 48 49 49 50 50 50 50 50 50 50 50 50 50 50 49 49 49 49 49 49 49 49 49 49 49 49 49 49 49 49 49 49 50 50 50 50 50 50 50 50 50 50 50
53 53 53 52 52 51 51 51 51 51 51 51 51 50 50 49 49 49 48 48 47 47 46 46 46 45 45 45 45 44 44 44 43 43 43 42 42 42 41 41 40 40 39 37 31 26 22 21 20 21 22 22 20 22 32 32 29 29 40 44 46 47 48 49 49 49 49 49 49 49 49 49 49 49 49 49 49 49 49 49 49 49 49 49 49 49 49 49 49 49 49 49 49 49 49 50 50 50 50 50 49 49 49
53 53 53 52 52 51 51 51 51 51 51 51 51 50 50 49 49 49 48 48 47 46 46 45 45 45 45 45 44 44 43 43 42 42 42 42 41 41 40 40 40 40 39 31 22 15 18 19 21 23 27 25 22 22 28 29 28 32 44 44 45 46 47 48 49 49 49 49 49 49 49 48 48 49 49 49 49 49 49 49 49 49 49 49 49 49 49 49 49 49 49 49 49 49 49 49 49 50 49 49 49 49 49
53 53 53 52 52 51 51 51 51 51 51 51 51 50 50 49 49 49 48 48 47 46 45 45 45 45 44 44 44 44 43 43 42 42 42 41 41 40 40 40 40 38 33 22 18 18 18 18 20 22 27 24 21 21 26 28 31 37 45 44 44 45 46 47 48 48 48 48 48 48 48 48 48 48 48 48 48 48 48 48 48 48 48 48 48 48 48 48 49 49 49 49 49 49 49 49 49 49 49 49 49 49 49
54 53 52 52 52 51 51 51 50 50 50 50 50 50 50 49 49 49 49 48 47 46 45 45 45 44 44 44 45 44 38 40 40 40 43 42 41 40 40 40 39 33 24 19 18 18 18 18 19 21 23 22 20 20 28 29 34 40 44 43 43 44 45 45 46 47 47 47 47 47 47 47 47 47 47 47 48 48 48 48 48 48 48 48 48 48 48 48 48 48 48 48 48 48 48 49 49 49 49 49 49 49 49
54 53 52 52 52 51 51 51 50 50 50 50 50 50 50 50 49 49 49 48 47 46 45 45 44 44 44 45 44 39 29 29 31 34 39 41 42 41 40 38 32 25 18 18 18 18 18 18 19 21 21 22 19 20 31 31 36 40 42 42 42 43 44 45 45 46 46 46 46 46 46 47 47 47 47 47 47 47 47 47 47 47 47 47 47 47 47 48 48 48 48 48 48 48 48 48 48 49 49 49 49 49 49
54 53 52 52 52 51 51 51 51 50 50 50 50 50 50 49 49 49 49 48 48 47 46 45 45 44 43 44 39 31 23 22 22 24 27 36 40 40 36 31 24 19 18 18 18 18 18 18 19 20 21 21 20 23 33 32 36 40 41 41 42 42 43 43 45 45 46 45 45 45 45 46 46 46 46 46 46 46 46 47 47 47 47 47 47 47 47 47 47 47 47 47 47 47 48 48 48 48 48 48 48 48 48
53 53 52 52 51 51 51 50 50 50 50 50 50 50 50 50 50 49 49 49 48 47 46 45 45 44 41 36 30 25 22 22 22 21 22 25 27 28 24 21 19 18 18 18 18 18 18 18 19 20 21 21 21 24 30 31 34 39 40 41 41 42 42 43 43 44 45 45 45 45 45 45 45 45 45 46 46 46 46 46 46 46 46 46 46 46 46 46 47 47 47 47 47 47 47 47 47 47 47 48 48 47 47
46 47 49 50 50 49 49 48 49 49 50 50 49 48 45 49 50 50 49 47 47 48 48 45 37 32 34 29 24 21 20 20 21 22 22 20 19 19 19 18 18 18 18 18 18 18 18 19 20 21 21 20 20 21 26 31 35 37 38 40 40 41 41 42 43 43 44 45 45 45 45 45 45 45 45 45 45 45 45 46 46 46 46 46 46 46 46 46 46 46 46 46 46 46 46 47 47 47 47 47 47 47 47
41 42 43 43 44 45 45 43 44 46 47 49 45 40 39 42 44 45 47 42 40 40 38 33 26 22 25 23 22 20 18 18 19 20 21 19 19 20 19 19 19 19 18 18 19 19 20 20 21 21 21 20 20 20 23 32 35 36 37 38 40 40 41 41 42 43 44 44 45 45 45 45 45 45 45 45 45 45 45 45 45 46 46 46 46 45 45 46 46 46 46 46 46 46 46 46 46 46 47 47 46 46 46
40 41 40 40 40 40 40 40 40 41 41 47 43 36 36 36 37 38 37 33 31 29 26 22 20 18 18 19 20 19 16 18 19 18 18 18 19 19 19 19 19 19 18 18 19 20 20 21 22 22 21 20 20 20 22 31 35 36 36 37 39 40 40 41 42 43 44 44 44 45 45 45 45 45 45 45 45 45 45 45 45 45 45 45 45 45 45 45 45 45 45 45 45 45 45 45 46 46 46 46 46 46 46
40 41 40 40 39 38 37 38 39 39 38 42 40 36 36 34 33 33 32 31 29 27 24 21 17 15 13 14 15 15 14 18 21 20 16 16 17 18 18 18 19 19 18 18 19 19 20 21 21 21 21 21 20 20 23 31 35 35 35 36 38 39 40 41 42 43 43 44 44 44 45 45 45 45 45 45 45 45 45 44 45 45 45 45 45 45 45 45 45 45 45 45 45 45 45 45 45 45 46 46 46 46 45
40 40 40 39 39 37 36 37 38 38 37 36 36 37 36 33 31 31 31 31 29 27 24 20 16 13 12 12 12 13 13 18 20 19 13 14 15 17 18 18 18 18 18 18 18 19 19 20 20 21 21 20 19 20 25 32 35 35 35 36 37 38 40 41 42 43 43 44 44 44 45 45 45 45 45 45 45 45 45 45 44 45 45 45 45 45 45 45 45 45 45 45 45 45 45 45 45 45 45 45 45 45 45
40 41 40 38 37 36 36 36 36 36 36 34 35 36 36 32 30 29 30 30 28 25 23 18 14 12 11 11 11 12 12 16 18 18 13 13 14 14 16 16 17 17 18 18 18 18 19 19 19 20 20 20 19 20 24 32 35 34 34 35 36 37 39 40 41 42 43 43 44 44 44 44 45 45 45 45 45 45 45 45 45 45 45 45 45 45 45 45 45 45 45 45 45 45 45 45 45 45 45 45 45 45 45
40 40 39 37 36 36 36 36 36 36 36 33 34 35 36 33 31 29 29 27 26 24 22 18 14 12 11 11 11 11 11 14 17 17 14 13 13 13 14 15 15 15 16 17 17 18 18 18 19 19 19 19 19 19 20 28 32 34 34 35 35 36 38 40 40 41 42 43 44 44 44 44 44 44 45 45 45 45 45 45 45 45 45 45 45 45 45 45 45 45 45 45 45 45 45 45 45 45 45 45 45 45 45
39 39 37 36 36 36 36 36 36 36 35 32 32 34 35 35 32 30 29 26 25 25 25 20 16 13 12 12 11 11 11 12 14 15 14 13 13 13 13 13 14 14 14 15 16 17 17 18 18 18 18 19 19 18 18 23 29 33 34 34 35 36 37 39 40 41 42 43 43 44 45 45 45 45 45 45 45 45 45 46 45 45 45 45 45 45 45 45 45 45 45 45 45 45 45 45 44 45 45 45 45 45 45
39 38 37 37 37 37 37 36 36 35 34 33 33 33 33 35 34 32 30 27 25 25 26 22 19 16 14 14 13 12 10 10 12 13 14 14 14 13 13 13 13 13 14 14 14 15 16 16 17 17 18 18 18 18 18 21 27 33 34 34 35 36 37 38 40 40 41 43 43 44 45 45 45 45 45 45 45 45 45 45 45 45 45 45 45 45 45 45 45 45 45 45 45 45 45 45 45 45 45 45 45 45 45
39 38 38 36 37 37 37 36 36 35 34 34 35 34 31 33 35 35 32 29 26 24 24 22 20 18 15 15 14 14 15 16 14 11 12 13 13 13 13 13 13 13 13 13 14 14 14 15 15 16 17 17 17 18 18 18 25 32 34 34 35 36 37 38 39 40 41 42 43 44 45 45 45 45 45 45 45 45 45 45 45 45 45 45 45 45 45 45 45 45 45 45 45 45 45 45 45 45 45 45 45 45 44
39 38 38 37 37 37 37 36 36 35 33 34 36 36 32 31 33 35 35 32 29 27 25 23 22 20 18 16 15 14 17 20 18 13 11 12 13 13 13 13 13 12 13 13 13 13 14 14 14 15 15 16 16 17 17 17 22 30 33 33 34 35 36 38 39 40 41 42 43 44 45 45 45 45 46 46 46 45 45 46 46 46 46 46 46 46 45 45 45 45 45 45 45 45 45 45 45 45 45 45 45 44 44
40 39 38 38 38 38 37 37 36 36 34 34 35 36 33 30 31 33 33 33 32 31 28 27 25 23 21 19 18 17 16 22 20 16 13 12 12 13 16 17 16 13 13 13 13 13 13 13 14 14 14 14 15 15 16 16 18 22 31 33 34 35 36 37 38 39 40 41 42 44 44 45 45 46 46 46 46 46 46 46 46 46 46 46 46 46 46 45 45 45 45 45 45 45 45 45 45 45 45 45 45 44 44
40 39 38 38 39 38 37 37 37 36 35 34 34 35 33 30 30 30 30 31 31 30 28 27 26 24 22 22 20 19 17 19 19 18 16 14 13 12 13 16 16 15 14 13 13 13 13 13 13 13 13 14 14 14 15 15 14 17 26 31 32 33 34 36 36 38 39 40 41 43 44 45 45 45 46 46 46 46 46 47 47 46 46 46 46 46 46 45 45 45 45 45 45 45 45 45 45 45 45 45 45 44 44
40 39 38 38 39 39 38 38 38 38 36 35 34 34 33 30 28 27 27 26 24 22 22 22 22 21 20 20 19 18 18 17 18 18 17 16 15 14 13 13 14 15 15 14 14 13 13 13 13 13 14 14 14 14 14 14 14 15 17 24 29 32 33 34 36 36 37 39 40 41 42 43 44 45 45 46 46 46 47 47 47 47 46 46 46 46 46 45 45 45 45 45 45 45 45 45 45 45 45 45 44 44 44
39 39 38 38 38 38 38 38 38 38 37 36 34 33 31 29 27 24 23 22 21 19 17 17 17 16 16 17 17 17 16 16 16 17 17 16 16 15 13 13 13 13 14 15 15 14 14 14 14 14 14 14 14 14 14 14 15 15 14 23 28 31 33 33 34 35 36 37 38 39 40 42 43 44 45 45 45 46 46 47 47 47 47 47 46 46 46 46 45 45 45 45 45 45 45 45 45 45 45 45 44 44 44
38 37 37 37 37 37 38 38 37 37 37 36 35 32 30 29 27 26 25 24 23 22 19 17 17 16 16 16 16 16 16 16 16 16 16 16 16 15 15 14 13 13 14 14 14 15 15 15 15 15 15 15 15 15 15 15 15 15 15 19 23 27 29 31 31 32 34 35 36 37 39 40 41 42 43 44 45 45 46 46 46 47 46 46 46 47 47 46 46 45 45 45 45 45 45 45 45 45 45 45 44 44 44
37 36 36 36 36 36 36 36 36 36 36 36 35 33 31 30 29 28 27 26 25 24 23 20 21 22 23 20 19 18 18 18 17 16 17 16 16 16 16 15 14 14 14 14 15 15 15 15 15 15 15 15 15 15 15 15 15 15 15 15 17 19 22 23 26 29 31 33 34 35 36 38 39 40 41 43 44 45 45 46 46 46 46 46 46 47 47 47 46 46 45 45 45 45 45 45 45 45 45 45 44 44 44
36 36 35 35 35 35 35 36 35 35 35 35 35 34 32 31 31 29 28 27 27 26 25 23 23 25 27 23 22 21 21 19 18 17 18 17 16 16 16 16 15 15 14 14 15 15 15 15 15 15 16 16 16 15 15 15 15 15 15 15 16 16 17 17 19 22 27 30 32 33 34 36 37 38 40 41 42 43 44 45 45 46 46 46 46 46 47 47 46 46 46 46 46 45 45 45 45 45 45 44 44 44 44
35 35 34 34 33 33 34 34 34 34 34 35 34 34 33 32 31 30 29 28 27 27 26 25 24 23 23 22 21 22 25 22 19 18 18 17 16 15 15 17 17 16 16 16 15 15 15 15 15 15 16 16 16 16 16 16 15 15 15 15 15 15 16 15 15 17 19 24 28 31 33 34 35 36 37 39 40 41 42 44 44 45 45 46 46 46 47 47 47 46 46 46 46 46 45 45 45 45 44 44 44 44 44
34 35 34 34 33 33 33 32 32 32 33 33 33 33 31 31 31 30 29 28 28 27 26 26 25 25 24 23 22 21 22 22 20 19 18 17 16 15 15 17 17 17 17 18 18 16 15 15 15 15 15 16 16 16 16 16 15 15 15 15 15 14 15 15 17 17 17 18 21 26 31 32 33 34 36 37 38 39 40 41 43 44 44 45 45 46 46 47 47 47 46 46 46 46 46 45 45 45 44 44 44 44 44
35 35 34 34 34 33 32 31 31 31 31 32 32 32 31 31 31 31 30 29 28 27 26 26 26 27 27 26 24 22 21 20 19 18 18 17 16 15 15 16 16 16 17 19 19 18 16 16 15 15 15 15 16 16 16 16 16 15 15 15 14 15 16 19 21 22 19 18 19 22 28 31 32 33 34 36 36 38 39 40 40 42 43 44 45 45 46 46 46 47 47 46 46 46 46 45 45 45 44 44 44 44 45
37 36 35 34 34 33 31 29 29 30 30 30 31 30 30 29 30 30 30 29 28 28 27 26 26 26 27 26 24 22 21 19 18 18 17 17 16 16 15 15 15 15 16 20 20 18 17 17 16 16 15 15 15 15 15 15 15 15 15 15 15 16 19 22 22 21 19 19 19 21 24 29 31 32 33 35 36 36 37 38 39 40 41 42 44 45 45 46 46 46 46 46 46 46 46 45 45 45 45 44 44 44 45
39 37 36 35 34 33 30 28 28 28 28 28 29 29 28 28 28 28 28 27 27 27 27 27 26 25 25 25 24 22 20 19 18 17 16 16 16 15 15 15 15 15 16 17 18 17 17 17 18 19 19 18 17 16 16 16 15 15 15 15 15 17 18 20 20 19 20 20 20 20 21 25 29 32 33 34 35 36 36 36 37 38 40 41 43 44 45 45 45 46 46 46 46 46 45 45 45 45 45 45 45 45 45
40 39 37 36 35 33 30 28 27 26 27 27 27 27 27 27 27 26 25 26 26 26 26 26 25 24 23 23 23 22 20 18 17 16 16 16 16 16 15 15 15 15 15 15 16 16 16 17 19 22 22 20 19 18 17 16 16 16 15 15 15 16 17 18 19 19 20 20 21 20 20 22 24 28 31 32 33 35 35 35 36 37 39 40 42 43 44 45 45 45 45 46 46 45 45 45 45 45 45 45 45 45 44
40 40 38 36 35 32 30 28 27 25 25 26 25 25 25 25 24 23 23 24 24 25 25 25 24 23 22 22 22 21 20 18 18 16 15 15 15 15 15 15 15 15 15 15 15 15 15 17 19 20 20 19 18 18 18 18 18 18 17 16 16 16 18 18 18 19 19 20 20 20 20 20 21 22 25 27 29 30 32 33 35 36 37 39 41 42 44 44 45 45 45 45 45 45 45 45 45 44 44 44 44 44 44
40 39 38 37 35 33 30 27 26 26 25 25 24 24 23 23 22 22 22 22 22 23 23 23 22 22 22 22 21 20 19 18 18 18 18 17 16 16 16 16 16 16 15 15 15 15 16 18 18 18 17 18 18 17 17 20 21 20 18 17 17 17 19 19 19 19 18 20 20 20 20 20 20 20 20 22 22 23 26 30 33 34 36 37 39 41 43 44 44 45 45 45 45 45 45 44 44 44 44 44 44 44 44
40 39 38 37 36 33 31 27 26 26 25 24 24 23 23 23 22 22 22 21 21 21 22 22 21 21 21 24 23 21 19 18 18 18 19 18 17 18 21 20 18 18 17 17 16 16 17 18 18 17 16 17 17 17 17 19 20 19 18 18 18 18 19 18 18 19 19 19 18 19 20 19 19 18 19 20 20 20 21 26 29 32 33 35 36 39 40 42 43 44 45 45 45 45 44 44 44 44 44 44 44 44 44
39 39 38 37 36 34 31 27 26 26 26 25 25 24 23 24 23 22 22 21 21 21 22 23 22 20 19 21 22 21 20 19 18 18 17 17 16 17 19 18 18 18 18 18 17 18 21 18 17 16 16 17 16 16 16 17 18 18 17 18 18 18 18 18 18 18 18 18 17 18 20 19 18 18 18 19 19 19 19 21 25 29 31 33 34 36 38 40 41 42 43 44 44 44 44 44 43 43 43 43 43 43 43
39 39 38 36 35 33 31 28 27 27 27 27 26 26 25 24 24 23 24 23 22 21 21 23 23 22 20 19 19 19 19 18 18 18 17 16 16 16 17 17 16 16 17 17 17 18 22 19 17 17 17 16 16 16 16 16 16 16 16 17 17 16 17 18 18 18 18 17 17 18 19 19 18 18 17 18 19 19 19 19 20 23 27 31 33 34 35 37 39 40 42 43 43 43 43 43 43 43 43 43 43 43 43
37 37 37 36 35 33 32 29 28 28 27 27 27 27 27 26 26 26 26 24 22 21 20 21 22 23 21 20 19 19 18 18 17 17 17 16 16 16 17 17 17 16 16 17 17 18 19 18 17 17 16 16 17 17 17 17 16 16 16 16 16 16 16 16 17 17 17 17 18 18 18 18 18 18 18 18 19 19 19 19 19 20 23 26 28 31 32 35 37 38 40 41 42 42 42 43 43 43 43 43 43 43 43
36 36 36 36 35 33 32 31 29 28 27 29 28 27 27 28 28 27 25 23 22 21 20 20 21 22 22 21 20 19 18 18 18 18 16 16 16 16 16 16 17 17 18 17 18 19 19 17 16 15 16 16 17 17 17 18 17 16 16 16 16 15 15 16 16 16 17 17 17 18 18 18 18 19 18 18 18 18 18 19 19 19 21 21 22 24 25 29 33 36 38 40 40 41 41 42 42 42 42 42 42 42 42
36 35 35 35 34 33 33 31 30 29 30 30 28 27 26 26 25 25 25 23 22 21 21 21 21 21 22 22 21 20 18 18 18 18 18 17 17 16 15 15 16 16 17 17 18 20 22 18 17 16 15 15 15 16 17 18 18 17 16 16 16 15 15 16 16 17 17 17 17 17 18 18 19 19 19 18 18 18 19 19 19 19 20 20 21 23 25 27 30 33 36 37 38 39 40 40 40 40 40 40 40 41 41
35 34 34 34 34 33 33 31 30 30 30 29 28 27 26 25 25 24 24 24 23 22 22 22 22 21 21 21 21 21 21 20 19 19 20 18 17 15 14 15 15 15 15 15 16 18 20 18 18 18 17 16 15 15 16 17 17 18 17 16 16 16 16 17 17 17 17 17 17 18 18 19 19 19 19 18 18 18 18 19 19 19 19 20 21 22 23 27 30 32 33 35 36 38 38 39 39 39 40 40 40 40 41
33 33 33 33 33 33 32 31 31 30 29 29 28 27 27 26 25 24 24 24 23 23 22 24 23 22 21 21 21 21 22 22 21 19 19 19 18 17 16 16 16 15 14 13 14 16 17 16 15 15 17 17 17 16 15 16 16 16 16 16 16 17 18 18 18 17 16 16 17 18 18 19 20 20 19 19 18 18 18 19 19 19 20 20 20 20 21 25 28 31 32 33 35 36 37 37 38 38 39 40 40 40 41
32 32 32 32 32 32 32 31 31 30 29 28 28 28 27 27 26 25 25 24 24 23 23 23 23 22 22 22 22 21 20 23 22 20 19 19 19 19 18 18 19 18 15 13 14 16 17 15 14 13 15 16 16 16 16 16 16 17 18 18 17 16 17 17 18 18 17 18 18 18 18 18 18 18 18 19 19 19 19 19 19 19 19 20 21 22 24 27 29 30 31 32 34 35 36 37 38 39 40 40 40 41 41
31 31 31 31 31 31 31 31 30 30 29 28 28 27 27 27 27 26 25 25 24 23 23 23 22 22 22 22 22 22 21 22 21 20 19 19 20 21 20 19 18 18 17 17 17 18 18 13 13 15 17 16 15 15 16 16 16 17 20 20 18 17 17 17 18 18 18 18 18 18 18 18 18 18 18 18 19 19 19 19 19 19 19 20 22 23 24 26 27 27 28 30 32 34 36 37 38 39 40 40 41 41 41
31 31 30 30 30 30 30 30 30 29 29 28 28 27 27 27 27 27 26 25 24 24 23 23 23 22 22 22 22 22 22 21 22 24 21 20 21 22 22 21 20 20 19 20 20 19 18 15 16 18 19 18 17 17 17 16 16 16 18 18 18 18 18 18 18 18 18 18 18 18 19 20 19 18 17 18 18 19 19 20 20 20 20 20 21 21 22 23 25 26 27 28 29 31 34 36 37 38 40 40 40 41 41
31 31 30 29 29 29 29 30 30 29 29 29 28 27 27 27 27 26 26 25 25 24 24 24 23 23 22 22 22 22 22 21 22 22 23 21 21 21 22 21 21 21 22 22 21 19 18 17 17 18 19 19 18 18 16 15 15 15 16 17 17 18 18 18 18 18 18 18 18 18 18 19 18 18 18 17 18 19 19 20 20 20 21 20 20 21 21 22 25 27 26 27 28 30 33 35 36 37 39 40 40 40 41
31 30 30 30 29 29 29 29 29 29 29 30 29 28 27 27 27 26 26 25 25 25 24 24 24 24 24 23 22 22 22 22 21 21 21 20 20 20 21 21 21 21 23 22 21 20 18 18 18 18 18 18 18 18 16 15 14 15 15 16 16 17 17 17 17 17 17 18 18 18 18 18 18 18 18 18 18 19 19 19 20 20 20 21 21 21 22 25 27 28 29 30 31 31 32 33 35 36 38 39 40 40 40
30 30 30 30 29 29 29 29 29 29 29 30 29 28 27 27 27 27 27 25 26 27 26 25 24 24 25 24 23 22 22 22 22 21 20 20 20 20 20 20 19 20 21 21 20 19 19 19 19 18 18 18 18 18 18 17 15 15 14 15 15 16 16 16 17 17 17 18 18 18 18 18 18 18 18 18 18 18 19 19 19 20 20 21 21 21 22 23 25 27 29 31 32 33 33 34 35 36 38 39 40 40 40
29 30 30 30 29 29 28 28 28 28 28 30 30 29 28 27 27 27 26 26 26 27 27 25 24 24 24 23 23 22 22 22 22 22 21 21 21 21 22 21 20 20 21 21 20 19 18 19 19 18 18 18 18 17 17 18 18 17 16 15 15 15 16 16 17 18 17 18 18 18 18 18 18 18 18 18 18 19 19 19 19 20 20 21 21 21 22 22 23 23 25 28 31 33 33 34 35 36 38 39 39 40 40